Aérodrome :
LOGIN :

S'inscrire | Disclaimer

   EN    FR    IT 

 










Légende :    VFR   VFR Marginal   IFR   IFR Intensif   IFR Très Intensif
Visi : 
Plafond : 
>= 8 km
>= 3000ft
5 à 8 km
1000 à 3000 ft
1500m à 5 km
500 à 1000 ft
800 à 1500m
200 à 500 ft
< 800m
< 200 ft
Symboles :   Orages  Brouillard  Fortes neiges  Fortes précipitations  Vent > 20 kt
SIGMETs :   Divers  Orages  Givrage  Turbulence  Onde Orograph.  Cendres Volcan.






- Altitude de l'aérodrome : 989 ft
- Code IATA : TRN


LIMF - Torino Caselle

DERNIER METAR :
  • 232050Z 27003KT 200V310 9999 FEW060TCU BKN080 20/15 Q1017

METARs EXPIRÉS :
  • 232020Z VRB02KT 9999 VCSH FEW060CB BKN090 19/16 Q1017
  • 231920Z 30003KT 9999 SCT090 20/17 Q1016
  • 231850Z 12003KT 100V170 9999 SCT080 19/17 Q1016
  • 231820Z 33006KT 300V080 9999 SCT080 21/16 Q1016

TAF TAF LIMF
Valide du 23 à 18h jusqu'au 24 à 18h UTC


231700Z 2318/2418 VRB06KT 9999 SCT050
TEMPO 2318/2321 4000 TSRA



MET'MAP, la Météo Aéronautique d'un coup d'oeil ! - Copyright ORBIFLY Décembre 2007 - Disclaimer

ORBIFLY MET'MAP TEAM :

Programmation & Développement : Alexandra Zaïnal
Sur une idée originale de : Baudouin d'Aumeries
Assistance à la programmation : Marc-Olivier Méhu
Soutien technique & logistique : Manuel Goepfert

Contact : metmap@orbifly.com




SOURCES & CREDITS :

   NOAA